Overview Statistics Trail Chart Weather Telemetry Raw packets
 

This is the latest recevied weather packets stored in our database for station/object K4WCH. If no packets are shown the sender has not sent any weather packets the latest 10 day(s).

<< 65 66 67 68 69 70 71 >>
Time Temp. Humidity Pressure Rain* Wind** Luminosity Snow
1788207379 25° C 94% 1017.1 hPa 0.51 mm - 88 W/m² -
1788207074 25° C 94% 1017.2 hPa 0 mm - 71 W/m² -
1788206770 25° C 94% 1017.2 hPa 0 mm - 71 W/m² -
1788206470 25° C 93% 1017.2 hPa 0 mm - 64 W/m² -
1788206165 25.56° C 93% 1017.1 hPa 0.51 mm - 55 W/m² -
1788205861 25.56° C 93% 1017.2 hPa 0 mm - 55 W/m² -
1788205555 25.56° C 93% 1017.2 hPa 0 mm - 55 W/m² -
1788205250 25.56° C 94% 1017.4 hPa 0 mm - 54 W/m² -
1788204946 25.56° C 93% 1017.1 hPa 0 mm - 54 W/m² -
1788204646 25.56° C 93% 1017.4 hPa 0.51 mm - 57 W/m² -
1788204340 25.56° C 93% 1017.3 hPa 0.51 mm - 57 W/m² -
1788204036 25.56° C 92% 1017.5 hPa 0 mm - 60 W/m² -
1788203732 25.56° C 91% 1017.7 hPa 0 mm - 65 W/m² -
1788203428 25.56° C 93% 1017.5 hPa 0 mm - 69 W/m² -
1788203123 25.56° C 92% 1017.6 hPa 0.51 mm - 74 W/m² -
1788202821 25.56° C 91% 1017.5 hPa 0.51 mm - 78 W/m² -
1788202517 26.11° C 91% 1017.4 hPa 0 mm - 86 W/m² -
1788202223 26.11° C 89% 1017.4 hPa 0 mm - 90 W/m² -
1788201907 26.11° C 91% 1017.7 hPa 0 mm - 86 W/m² -
1788201602 26.11° C 91% 1017.5 hPa 0 mm - 80 W/m² -
1788201311 26.11° C 90% 1017.4 hPa 0 mm - 81 W/m² -
1788201001 26.11° C 90% 1017.2 hPa 0 mm - 88 W/m² -
1788200696 26.11° C 89% 1017.4 hPa 0 mm - 100 W/m² -
1788200392 26.67° C 87% 1017.4 hPa 0 mm - 108 W/m² -
1788200087 27.22° C 84% 1017.6 hPa 0 mm - 108 W/m² -

* Rain latest hour (hover to see other rain measurements)
** Current wind speed in m/s (hover to see current wind gust speed)